Sigfox identifier Datetime Temperature Humidity SNR
002EEE0C 2019-04-23 15:02:47 16.7 32 24.7
002EEE0C 2019-04-23 14:28:55 16.5 32 24.7
002EEE0C 2019-04-23 13:55:03 16.5 32 24.7
002EEE0C 2019-04-23 13:21:10 16.3 32 24.8
002EEE0C 2019-04-23 12:47:18 16.3 32 24.9
002EEE0C 2019-04-23 12:13:27 16 31 24.6
002EEE0C 2019-04-23 11:39:36 16 31 24.5
002EEE0C 2019-04-23 11:05:46 15.9 31 24.4
002EEE0C 2019-04-23 10:31:55 15.9 31 24.3
002EEE0C 2019-04-23 09:58:02 15.8 31 24.2
002EEE0C 2019-04-23 09:24:10 15.8 31 24.2
002EEE0C 2019-04-23 08:50:19 15.8 31 24.1
002EEE0C 2019-04-23 08:16:27 15.8 31 23.9
002EEE0C 2019-04-23 07:42:36 15.8 31 23.9
002EEE0C 2019-04-23 07:08:44 15.8 31 23.9
002EEE0C 2019-04-23 06:34:52 15.8 31 23.8
002EEE0C 2019-04-23 06:01:00 15.8 31 23.6
002EEE0C 2019-04-23 05:27:08 15.7 31 23.5
002EEE0C 2019-04-23 04:53:15 15.8 31 23.5
002EEE0C 2019-04-23 04:19:23 15.8 31 23.5
002EEE0C 2019-04-23 03:45:30 15.7 31 23.5
002EEE0C 2019-04-23 03:11:39 15.6 31 23.6
002EEE0C 2019-04-23 02:37:46 15.7 31 23.6
002EEE0C 2019-04-23 02:03:54 15.7 31 23.6
002EEE0C 2019-04-23 01:30:02 15.8 31 23.5
002EEE0C 2019-04-23 00:56:10 15.8 31 23.6
002EEE0C 2019-04-23 00:22:17 15.8 31 23.6
002EEE0C 2019-04-22 23:48:24 15.9 31 23.6
002EEE0C 2019-04-22 23:14:31 15.8 31 23.7
002EEE0C 2019-04-22 22:40:40 15.8 31 23.7
002EEE0C 2019-04-22 22:06:48 15.8 30 23.6
002EEE0C 2019-04-22 21:32:57 16 30 23.7
002EEE0C 2019-04-22 20:59:04 16 30 23.8
002EEE0C 2019-04-22 20:25:12 16 30 24.2
002EEE0C 2019-04-22 19:51:18 16 30 24.4
002EEE0C 2019-04-22 19:17:26 16 30 24.5
002EEE0C 2019-04-22 18:43:34 16.3 30 24.6
002EEE0C 2019-04-22 18:09:41 16.3 30 24.7
002EEE0C 2019-04-22 17:35:49 16.3 30 24.6
002EEE0C 2019-04-22 17:01:57 16.3 30 24.7
002EEE0C 2019-04-22 16:28:04 16.3 30 24.8
002EEE0C 2019-04-22 15:54:11 16 30 24.8
002EEE0C 2019-04-22 15:20:19 16 30 24.8
002EEE0C 2019-04-22 14:46:28 16 30 24.8
002EEE0C 2019-04-22 14:12:35 16 30 24.8
002EEE0C 2019-04-22 13:38:43 16 30 24.8
002EEE0C 2019-04-22 13:04:51 16 30 24.8
002EEE0C 2019-04-22 12:30:58 16 30 24.7
002EEE0C 2019-04-22 11:57:07 16 30 24.7
002EEE0C 2019-04-22 11:23:15 16 30 24.6
002EEE0C 2019-04-22 10:49:22 16 30 24.7
002EEE0C 2019-04-22 10:15:30 15.8 30 24.6
002EEE0C 2019-04-22 09:41:37 15.8 30 24.6
002EEE0C 2019-04-22 09:07:44 15.8 30 24.6
002EEE0C 2019-04-22 08:33:52 15.8 30 24.6
002EEE0C 2019-04-22 08:00:01 15.8 30 24.6
002EEE0C 2019-04-22 07:26:09 15.8 30 24.5
002EEE0C 2019-04-22 06:52:17 15.8 30 24.4
002EEE0C 2019-04-22 06:18:25 15.8 30 24.4
002EEE0C 2019-04-22 05:44:33 15.8 30 24.2
002EEE0C 2019-04-22 05:10:41 15.8 30 24.1
002EEE0C 2019-04-22 04:36:48 15.8 30 24
002EEE0C 2019-04-22 04:02:57 15.8 30 23.8
002EEE0C 2019-04-22 03:29:05 15.8 30 23.7
002EEE0C 2019-04-22 02:55:14 15.8 30 23.7
002EEE0C 2019-04-22 02:21:22 15.7 30 23.6
002EEE0C 2019-04-22 01:47:30 15.8 30 23.6
002EEE0C 2019-04-22 01:13:40 15.7 30 23.6
002EEE0C 2019-04-22 00:39:48 15.6 30 23.6
002EEE0C 2019-04-22 00:05:57 15.7 30 23.6
002EEE0C 2019-04-21 23:32:06 15.6 30 23.6
002EEE0C 2019-04-21 22:58:14 15.6 30 23.6
002EEE0C 2019-04-21 22:24:22 15.6 30 23.7
002EEE0C 2019-04-21 21:50:30 15.6 30 23.8
002EEE0C 2019-04-21 21:16:38 15.7 30 23.9
002EEE0C 2019-04-21 20:42:46 15.6 30 23.8
002EEE0C 2019-04-21 20:08:54 15.6 29 23.8
002EEE0C 2019-04-21 19:35:03 15.7 29 23.8
002EEE0C 2019-04-21 19:01:12 15.6 29 23.8
002EEE0C 2019-04-21 18:27:20 15.6 29 23.8
002EEE0C 2019-04-21 17:53:28 15.6 29 23.8
002EEE0C 2019-04-21 17:19:36 15.6 29 23.9
002EEE0C 2019-04-21 16:45:44 15.6 29 23.8
002EEE0C 2019-04-21 16:11:52 15.6 29 23.8
002EEE0C 2019-04-21 15:38:01 15.6 29 23.8
002EEE0C 2019-04-21 15:04:10 15.6 29 23.9
002EEE0C 2019-04-21 14:30:18 15.6 29 24.1
002EEE0C 2019-04-21 13:56:28 15.6 29 24.2
002EEE0C 2019-04-21 13:22:37 15.6 29 24.4
002EEE0C 2019-04-21 12:48:47 15.6 29 24.4
002EEE0C 2019-04-21 12:14:57 15.6 29 24.4
002EEE0C 2019-04-21 11:41:06 15.6 29 24.5
002EEE0C 2019-04-21 11:07:15 15.6 29 24.5
002EEE0C 2019-04-21 10:33:24 15.6 29 24.5
002EEE0C 2019-04-21 09:59:32 15.6 29 24.5
002EEE0C 2019-04-21 09:25:40 15.6 29 24.5
002EEE0C 2019-04-21 08:51:49 15.7 29 24.6
002EEE0C 2019-04-21 08:17:57 15.8 29 24.5
002EEE0C 2019-04-21 07:44:06 15.8 29 24.5
002EEE0C 2019-04-21 07:10:14 15.8 29 24.5
002EEE0C 2019-04-21 06:36:23 15.8 29 24.5
002EEE0C 2019-04-21 06:02:33 15.8 29 24.5
002EEE0C 2019-04-21 05:28:40 15.8 29 24.5
002EEE0C 2019-04-21 04:54:48 15.8 29 24.5
002EEE0C 2019-04-21 04:20:56 15.8 29 24.5
002EEE0C 2019-04-21 03:47:05 15.8 29 24.6
002EEE0C 2019-04-21 03:13:13 15.7 29 24.5
002EEE0C 2019-04-21 02:39:21 15.8 29 24.6
002EEE0C 2019-04-21 02:05:29 15.7 28 24.6
002EEE0C 2019-04-21 01:31:36 15.8 29 24.6
002EEE0C 2019-04-21 00:57:45 15.6 28 24.5
002EEE0C 2019-04-21 00:23:53 15.8 28 24.3
002EEE0C 2019-04-20 23:50:02 15.8 29 24.4
002EEE0C 2019-04-20 23:16:10 15.6 28 24.7
002EEE0C 2019-04-20 22:42:19 15.6 28 24.7
002EEE0C 2019-04-20 22:08:27 15.6 28 24.6
002EEE0C 2019-04-20 21:34:36 15.6 28 24.7
002EEE0C 2019-04-20 21:00:45 15.7 28 24.7
002EEE0C 2019-04-20 20:26:54 15.6 28 24.7
002EEE0C 2019-04-20 19:53:02 15.7 28 24.7
002EEE0C 2019-04-20 19:19:11 15.7 28 24.6
002EEE0C 2019-04-20 18:45:19 15.7 28 24.5
002EEE0C 2019-04-20 18:11:27 15.8 28 24.5
002EEE0C 2019-04-20 17:37:34 15.8 28 24.5
002EEE0C 2019-04-20 17:03:43 15.6 28 24.5
002EEE0C 2019-04-20 16:29:50 15.6 28 24.4
002EEE0C 2019-04-20 15:55:56 15.7 28 24.4
002EEE0C 2019-04-20 15:22:05 15.8 28 24.5
002EEE0C 2019-04-20 14:48:12 15.6 28 24.4
002EEE0C 2019-04-20 14:14:19 15.6 28 24.4
002EEE0C 2019-04-20 13:40:26 15.6 28 24.4
002EEE0C 2019-04-20 13:06:33 15.6 28 24.4
002EEE0C 2019-04-20 12:32:41 15.6 28 24.2
002EEE0C 2019-04-20 11:58:49 15.6 28 24.1
002EEE0C 2019-04-20 11:24:57 15.6 28 24.1
002EEE0C 2019-04-20 10:51:05 15.6 28 24
002EEE0C 2019-04-20 10:17:13 15.6 28 24
002EEE0C 2019-04-20 09:43:21 15.6 28 24.1
002EEE0C 2019-04-20 09:09:29 15.7 28 23.6
002EEE0C 2019-04-20 08:35:37 15.8 28 23.6
002EEE0C 2019-04-20 08:01:44 15.8 28 23.9
002EEE0C 2019-04-20 07:27:51 15.9 27 23.7
002EEE0C 2019-04-20 06:53:58 15.9 28 23.7
002EEE0C 2019-04-20 06:20:06 15.8 27 23.8
002EEE0C 2019-04-20 05:46:13 15.9 27 23.7
002EEE0C 2019-04-20 05:12:21 15.8 28 23.7
002EEE0C 2019-04-20 04:38:29 15.8 27 23.7
002EEE0C 2019-04-20 04:04:37 15.8 27 23.6
002EEE0C 2019-04-20 03:30:44 15.9 27 23.7
002EEE0C 2019-04-20 02:56:51 15.9 27 23.6
002EEE0C 2019-04-20 02:23:00 16 27 23.6
002EEE0C 2019-04-20 01:49:08 16 27 23.6
002EEE0C 2019-04-20 01:15:16 16 27 23.6
002EEE0C 2019-04-20 00:41:24 16 27 23.6
002EEE0C 2019-04-20 00:07:33 16 27 23.5
002EEE0C 2019-04-19 23:33:40 16.1 27 23.4
002EEE0C 2019-04-19 22:59:48 16.2 27 23.5
002EEE0C 2019-04-19 22:25:56 16.2 27 23.9
002EEE0C 2019-04-19 21:52:04 16.3 27 23.8
002EEE0C 2019-04-19 21:18:12 16.3 27 24
002EEE0C 2019-04-19 20:44:22 16.3 27 24.1
002EEE0C 2019-04-19 20:10:31 16.2 27 24.1
002EEE0C 2019-04-19 19:36:40 16.3 27 24
002EEE0C 2019-04-19 19:02:48 16.5 27 23.8
002EEE0C 2019-04-19 18:28:57 16.4 27 23.8
002EEE0C 2019-04-19 17:55:06 16.4 27 23.8
002EEE0C 2019-04-19 17:21:16 16.4 27 23.8
002EEE0C 2019-04-19 16:47:25 16.3 27 23.7
002EEE0C 2019-04-19 16:13:34 16.3 27 23.8
002EEE0C 2019-04-19 15:39:42 16.3 27 23.8
002EEE0C 2019-04-19 15:05:50 16.3 27 24
002EEE0C 2019-04-19 14:31:57 16.3 27 23.9
002EEE0C 2019-04-19 13:58:06 16.2 27 23.9
002EEE0C 2019-04-19 13:24:14 16.2 26 23.9
002EEE0C 2019-04-19 12:50:22 16.1 26 24.1
002EEE0C 2019-04-19 12:16:28 16 26 24.2
002EEE0C 2019-04-19 11:42:37 16 26 24.2
002EEE0C 2019-04-19 11:08:44 16 26 24.2
002EEE0C 2019-04-19 10:34:52 16 26 24.3
002EEE0C 2019-04-19 10:01:01 16 26 24.3
002EEE0C 2019-04-19 09:27:09 16 26 24.4
002EEE0C 2019-04-19 08:53:17 16 26 24.4
002EEE0C 2019-04-19 08:19:25 16 26 24.3
002EEE0C 2019-04-19 07:45:33 16 26 24.4
002EEE0C 2019-04-19 07:11:40 16 26 24.3
002EEE0C 2019-04-19 06:37:48 16 26 24.3
002EEE0C 2019-04-19 06:03:55 16 26 24.6
002EEE0C 2019-04-19 05:30:03 16 26 24.7
002EEE0C 2019-04-19 04:56:11 16 26 25.1
002EEE0C 2019-04-19 04:22:18 16 26 25.2
002EEE0C 2019-04-19 03:48:26 16 26 25.3
002EEE0C 2019-04-19 03:14:34 16.2 26 25.3
002EEE0C 2019-04-19 02:40:40 16 26 25.2
002EEE0C 2019-04-19 02:06:49 16.1 26 25.3
002EEE0C 2019-04-19 01:32:57 16.3 25 25.1
002EEE0C 2019-04-19 00:59:05 16.3 26 25.1
002EEE0C 2019-04-19 00:25:12 16.4 25 25.2
002EEE0C 2019-04-18 23:51:20 16.5 25 25.3
002EEE0C 2019-04-18 23:17:28 16.5 25 25.2
002EEE0C 2019-04-18 22:43:36 16.7 25 25.1
002EEE0C 2019-04-18 22:09:44 16.7 25 25.1
002EEE0C 2019-04-18 21:35:53 16.7 26 25
002EEE0C 2019-04-18 21:02:02 16.7 25 25
002EEE0C 2019-04-18 20:28:09 16.7 25 25.1
002EEE0C 2019-04-18 19:54:18 16.9 25 25
002EEE0C 2019-04-18 19:20:26 16.9 25 25.1
002EEE0C 2019-04-18 18:46:35 16.9 25 25
002EEE0C 2019-04-18 18:12:43 16.9 25 25
002EEE0C 2019-04-18 17:38:52 16.9 25 24.9
002EEE0C 2019-04-18 17:05:01 16.9 25 24.9
002EEE0C 2019-04-18 16:31:10 16.8 25 24.5
002EEE0C 2019-04-18 15:57:18 16.7 25 24.5
002EEE0C 2019-04-18 15:23:26 16.7 25 24.5
002EEE0C 2019-04-18 14:49:33 16.6 25 24.1
002EEE0C 2019-04-18 14:15:40 16.5 25 24
002EEE0C 2019-04-18 13:41:47 16.5 25 23.8
002EEE0C 2019-04-18 13:07:54 16.4 25 24
002EEE0C 2019-04-18 12:34:00 16.3 25 24.1
002EEE0C 2019-04-18 12:00:07 16.3 25 24.1
002EEE0C 2019-04-18 11:26:14 16.3 25 24.2
002EEE0C 2019-04-18 10:52:22 16.4 25 24.4
002EEE0C 2019-04-18 10:18:30 16.3 25 24.4
002EEE0C 2019-04-18 09:44:38 16.3 25 24.3
002EEE0C 2019-04-18 09:10:47 16 24 24.3
002EEE0C 2019-04-18 08:36:55 16.3 24 24.4
002EEE0C 2019-04-18 08:03:02 16.5 25 24.4
002EEE0C 2019-04-18 07:29:10 16.5 24 24.6
002EEE0C 2019-04-18 06:55:17 16.5 24 24.6
002EEE0C 2019-04-18 06:21:25 16.4 24 24.5
002EEE0C 2019-04-18 05:47:33 16.3 24 24.4
002EEE0C 2019-04-18 05:13:41 16.3 24 24.8
002EEE0C 2019-04-18 04:39:50 16.3 24 24.8
002EEE0C 2019-04-18 04:05:57 16.3 24 24.9
002EEE0C 2019-04-18 03:32:05 16.3 24 24.8
002EEE0C 2019-04-18 02:58:14 16.3 24 24.7
002EEE0C 2019-04-18 02:24:21 16.3 24 24.6
002EEE0C 2019-04-18 01:50:30 16.4 24 24.6
002EEE0C 2019-04-18 01:16:38 16.5 24 24.5
002EEE0C 2019-04-18 00:42:46 16.5 24 24.3
002EEE0C 2019-04-18 00:08:53 16.7 24 24.2
002EEE0C 2019-04-17 23:35:00 16.9 24 24.1
002EEE0C 2019-04-17 23:01:07 16.9 24 23.9
002EEE0C 2019-04-17 22:27:15 16.9 24 23.8
002EEE0C 2019-04-17 21:53:23 16.9 24 23.6
002EEE0C 2019-04-17 21:19:30 16.9 24 23.4
002EEE0C 2019-04-17 20:45:38 16.8 24 23.1
002EEE0C 2019-04-17 20:11:46 16.8 23 22.9
002EEE0C 2019-04-17 19:37:52 16.8 23 22.9
002EEE0C 2019-04-17 19:04:00 16.8 23 22.7
002EEE0C 2019-04-17 18:30:06 16.8 23 22.5
002EEE0C 2019-04-17 17:56:13 16.8 23 22.3
002EEE0C 2019-04-17 17:22:21 16.7 23 21.9
002EEE0C 2019-04-17 16:48:29 16.7 23 21.7
002EEE0C 2019-04-17 16:14:35 16.7 23 21.7
002EEE0C 2019-04-17 15:40:44 16.7 23 21.6
002EEE0C 2019-04-17 15:06:52 16.7 23 20.3
002EEE0C 2019-04-17 14:32:59 16.9 23 20.2
002EEE0C 2019-04-17 13:59:06 16.9 23 19.9
002EEE0C 2019-04-17 13:25:15 17.1 23 20.1
002EEE0C 2019-04-17 12:51:20 17.2 23 20.2
002EEE0C 2019-04-17 12:17:27 17.1 23 20.3
002EEE0C 2019-04-17 11:43:33 17.1 23 20.2
002EEE0C 2019-04-17 11:09:41 17.1 23 20.1
002EEE0C 2019-04-17 10:35:47 17 23 20.1
002EEE0C 2019-04-17 10:01:55 16.9 23 20
002EEE0C 2019-04-17 09:28:03 16.9 22 19.9
002EEE0C 2019-04-17 08:54:10 17 22 19.7
002EEE0C 2019-04-17 08:20:18 17.1 22 19.7
002EEE0C 2019-04-17 07:46:25 17.3 22 19.7
002EEE0C 2019-04-17 07:12:32 17.5 22 19.9
002EEE0C 2019-04-17 06:38:39 17.5 22 20
002EEE0C 2019-04-17 06:04:46 17.8 22 20.1
002EEE0C 2019-04-17 05:30:54 17.8 22 20.2
002EEE0C 2019-04-17 04:57:02 17.8 22 20.1
002EEE0C 2019-04-17 04:23:10 17.8 22 20
002EEE0C 2019-04-17 03:49:18 17.9 22 19.9
002EEE0C 2019-04-17 03:15:27 18 22 19.7
002EEE0C 2019-04-17 02:41:35 18.1 22 19.6
002EEE0C 2019-04-17 02:07:43 18.2 22 19.5
002EEE0C 2019-04-17 01:33:52 18.2 22 19.3
002EEE0C 2019-04-17 01:00:01 18.2 22 19.2
002EEE0C 2019-04-17 00:26:10 18.2 22 19
002EEE0C 2019-04-16 23:52:18 18 22 18.6
002EEE0C 2019-04-16 23:18:27 18 21 18.4
002EEE0C 2019-04-16 22:44:36 18 21 17.8
002EEE0C 2019-04-16 22:10:45 18.4 21 17.6
002EEE0C 2019-04-16 21:36:54 18.6 21 17.6
002EEE0C 2019-04-16 21:03:03 18.8 21 17.6
002EEE0C 2019-04-16 20:29:12 19 21 17.7
002EEE0C 2019-04-16 19:55:22 19 21 17.4
002EEE0C 2019-04-16 19:21:30 19 21 17.7
002EEE0C 2019-04-16 18:47:38 19 21 17.6
002EEE0C 2019-04-16 18:13:47 19 21 17.6
002EEE0C 2019-04-16 17:06:04 19.2 21 17.6
002EEE0C 2019-04-16 15:58:22 19.7 21 17.2
002EEE0C 2019-04-16 15:24:32 19.9 21 16.9
002EEE0C 2019-04-16 14:50:42 20.3 20 16.5
002EEE0C 2019-04-16 14:16:50 21 21 15.5
002EEE0C 2019-04-16 13:43:00 21.2 21 15.3
002EEE0C 2019-04-16 13:09:12 21.2 21 15.4
002EEE0C 2019-04-16 12:35:18 21.2 21 15.4
002EEE0C 2019-04-16 12:01:27 21.2 21 15.6
002EEE0C 2019-04-16 11:27:37 21.2 21 15.4
002EEE0C 2019-04-16 10:53:46 21.2 21 15.2
002EEE0C 2019-04-16 10:19:55 21.2 21 15.4
002EEE0C 2019-04-16 09:46:04 21.2 21 15.6
002EEE0C 2019-04-16 09:12:12 21.2 21 15.9
002EEE0C 2019-04-16 08:38:21 21.2 21 16.5
002EEE0C 2019-04-16 08:04:30 21.2 21 16.4
002EEE0C 2019-04-16 07:30:38 21.2 21 16.5
002EEE0C 2019-04-16 06:56:51 21.2 21 16.8
002EEE0C 2019-04-16 06:22:57 21.2 20 16.9
002EEE0C 2019-04-16 05:49:05 21.2 20 17
002EEE0C 2019-04-16 05:15:14 21.2 20 16.9
002EEE0C 2019-04-16 04:41:23 21.2 20 16.8
002EEE0C 2019-04-16 04:07:31 21.2 20 16.7
002EEE0C 2019-04-16 03:33:40 21.2 20 16.6
002EEE0C 2019-04-16 02:59:51 21.2 20 16.4
002EEE0C 2019-04-16 02:26:01 21.2 20 16.7
002EEE0C 2019-04-16 01:52:08 21.2 20 17.1
002EEE0C 2019-04-16 01:18:18 21.2 20 17.5
002EEE0C 2019-04-16 00:44:29 21.3 20 18
002EEE0C 2019-04-16 00:10:38 21.3 20 18.8
002EEE0C 2019-04-15 23:36:45 21.4 20 19.2
002EEE0C 2019-04-15 23:02:53 21.4 20 19.7
002EEE0C 2019-04-15 22:29:01 21.4 20 20.1
002EEE0C 2019-04-15 21:55:10 21.4 20 20.3
002EEE0C 2019-04-15 21:21:20 21.4 20 20.4
002EEE0C 2019-04-15 20:47:31 21.4 20 20.5
002EEE0C 2019-04-15 20:13:37 21.4 20 20.7
002EEE0C 2019-04-15 19:39:47 21.4 20 21.2
002EEE0C 2019-04-15 19:05:56 21.4 20 21.2
002EEE0C 2019-04-15 18:32:06 21.4 20 21.9
002EEE0C 2019-04-15 17:58:14 21.4 20 22.1
002EEE0C 2019-04-15 17:24:23 21.4 20 22.2
002EEE0C 2019-04-15 16:50:32 21.6 19 22.4
002EEE0C 2019-04-15 16:16:39 21.6 19 22.5
002EEE0C 2019-04-15 15:42:48 21.6 19 22.9
002EEE0C 2019-04-15 15:08:57 21.8 19 23.2
002EEE0C 2019-04-15 14:35:06 21.8 19 23.3
002EEE0C 2019-04-15 14:01:14 22 19 23.6
002EEE0C 2019-04-15 13:27:23 22.1 19 23.8
002EEE0C 2019-04-15 12:53:35 22.5 19 24.4
002EEE0C 2019-04-15 12:19:43 22.6 19 24.6
002EEE0C 2019-04-15 11:45:53 22.3 16 25.1
002EEE0C 2019-04-15 11:12:03 22.2 17 25.2
002EEE0C 2019-04-15 10:38:13 22.2 17 25.2
002EEE0C 2019-04-15 10:04:23 22.2 17 25.1
002EEE0C 2019-04-15 09:30:32 22.2 18 25.3
002EEE0C 2019-04-15 08:56:43 22 17 25.3
002EEE0C 2019-04-15 08:22:52 22 17 25.2
002EEE0C 2019-04-15 07:49:02 22 17 25.3
002EEE0C 2019-04-15 07:15:15 21.9 18 25.3
002EEE0C 2019-04-15 06:41:23 21.9 18 25.4
002EEE0C 2019-04-15 06:07:33 21.8 18 25.3
002EEE0C 2019-04-15 05:33:43 21.8 18 25.3
002EEE0C 2019-04-15 04:59:52 21.8 18 25.3
002EEE0C 2019-04-15 04:26:01 21.8 18 25.1
002EEE0C 2019-04-15 03:52:10 21.8 18 25.5
002EEE0C 2019-04-15 03:18:18 21.8 18 25.5
002EEE0C 2019-04-15 02:44:27 21.8 18 25.6
002EEE0C 2019-04-15 02:10:34 21.8 18 25.6
002EEE0C 2019-04-15 01:36:42 21.8 18 25.5
002EEE0C 2019-04-15 01:02:49 21.8 18 25.5
002EEE0C 2019-04-15 00:28:57 21.8 18 25.6
002EEE0C 2019-04-14 23:55:06 21.8 18 25.8
002EEE0C 2019-04-14 23:21:15 21.8 18 25.8
002EEE0C 2019-04-14 22:47:24 21.8 18 25.4
002EEE0C 2019-04-14 22:13:31 21.9 18 25.5
002EEE0C 2019-04-14 21:39:40 22 19 25.1
002EEE0C 2019-04-14 21:05:48 22 19 25.1
002EEE0C 2019-04-14 20:31:55 22.1 19 25.2
002EEE0C 2019-04-14 19:58:02 22 19 25.2
002EEE0C 2019-04-14 19:24:10 22 19 25.2
002EEE0C 2019-04-14 18:50:18 22 19 25.5
002EEE0C 2019-04-14 18:16:26 22 19 25.6
002EEE0C 2019-04-14 17:42:34 22 19 25.6
002EEE0C 2019-04-14 17:08:41 22 19 25.6
002EEE0C 2019-04-14 16:34:49 22 19 25.7
002EEE0C 2019-04-14 16:00:57 21.9 19 25.8
002EEE0C 2019-04-14 15:27:05 22 19 25.8
002EEE0C 2019-04-14 14:53:12 22 19 25.8
002EEE0C 2019-04-14 14:19:21 22 19 25.9
002EEE0C 2019-04-14 13:45:29 22 19 25.5
002EEE0C 2019-04-14 13:11:37 22 19 25.5
002EEE0C 2019-04-14 12:37:45 22 19 25.5
002EEE0C 2019-04-14 12:03:54 22 19 25.5
002EEE0C 2019-04-14 11:30:02 22 19 25.5
002EEE0C 2019-04-14 10:56:11 22 19 25.5
002EEE0C 2019-04-14 10:22:20 22 19 25.5
002EEE0C 2019-04-14 09:48:27 22 19 25.2
002EEE0C 2019-04-14 09:14:32 22 19 25.3
002EEE0C 2019-04-14 08:40:39 22 19 25.5
002EEE0C 2019-04-14 08:06:46 21.9 19 25.4
002EEE0C 2019-04-14 07:32:53 21.9 18 25.5
002EEE0C 2019-04-14 06:59:00 21.9 18 25.4
002EEE0C 2019-04-14 06:25:08 22 18 25.3
002EEE0C 2019-04-14 05:51:18 21.9 18 25.3
002EEE0C 2019-04-14 05:17:28 21.9 18 25.3
002EEE0C 2019-04-14 04:43:37 21.9 18 24.8
002EEE0C 2019-04-14 04:09:46 21.9 18 24.8
002EEE0C 2019-04-14 03:35:57 22 18 24.8
002EEE0C 2019-04-14 03:02:06 22 18 24.8
002EEE0C 2019-04-14 02:28:15 22 19 24.8
002EEE0C 2019-04-14 01:54:24 22 19 24.8
002EEE0C 2019-04-14 01:20:31 22 19 24.8
002EEE0C 2019-04-14 00:46:39 22 18 24.7
002EEE0C 2019-04-14 00:12:46 22 18 24.6
002EEE0C 2019-04-13 23:38:53 22 18 24.7
002EEE0C 2019-04-13 23:04:59 22.1 18 24.7
002EEE0C 2019-04-13 22:31:05 22.1 18 25.2
002EEE0C 2019-04-13 21:57:12 22.1 18 25.1
002EEE0C 2019-04-13 21:23:18 22.1 18 25.2
002EEE0C 2019-04-13 20:49:26 22.2 18 25.1
002EEE0C 2019-04-13 20:15:34 22.2 18 25
002EEE0C 2019-04-13 19:41:41 22.2 18 24.9
002EEE0C 2019-04-13 19:07:49 22.2 18 24.7
002EEE0C 2019-04-13 18:33:58 22.2 18 24.7
002EEE0C 2019-04-13 18:00:06 22.2 18 24.7
002EEE0C 2019-04-13 17:26:12 22.2 18 24.8
002EEE0C 2019-04-13 16:52:20 22.3 18 24.7
002EEE0C 2019-04-13 16:18:28 22.2 18 24.9
002EEE0C 2019-04-13 15:44:36 22.3 18 24.9
002EEE0C 2019-04-13 15:10:44 22.2 18 25.2
002EEE0C 2019-04-13 14:36:52 22.3 18 25.3
002EEE0C 2019-04-13 14:03:00 22.4 18 25.3
002EEE0C 2019-04-13 13:29:07 22.5 18 25.2
002EEE0C 2019-04-13 12:55:16 22.5 18 25.1
002EEE0C 2019-04-13 12:21:23 22.5 19 25.1
002EEE0C 2019-04-13 11:47:30 22.5 19 25
002EEE0C 2019-04-13 11:13:38 22.5 19 24.9
002EEE0C 2019-04-13 10:39:45 22.4 19 24.9
002EEE0C 2019-04-13 10:05:53 22.4 18 25
002EEE0C 2019-04-13 09:32:00 22.5 18 25
002EEE0C 2019-04-13 08:58:06 22.4 18 25.1
002EEE0C 2019-04-13 08:24:15 22.5 18 24.6
002EEE0C 2019-04-13 07:50:24 22.4 18 24.6
002EEE0C 2019-04-13 07:16:33 22.5 18 24.6
002EEE0C 2019-04-13 06:42:40 22.4 18 24.6
002EEE0C 2019-04-13 06:08:48 22.4 18 24.6
002EEE0C 2019-04-13 05:34:54 22.4 18 24.6
002EEE0C 2019-04-13 05:01:00 22.3 18 24.7
002EEE0C 2019-04-13 04:27:07 22.3 18 25
002EEE0C 2019-04-13 03:53:13 22.4 18 25.4
002EEE0C 2019-04-13 03:19:19 22.5 18 25.3
002EEE0C 2019-04-13 02:45:25 22.5 18 25.2
002EEE0C 2019-04-13 02:11:32 22.5 18 25.2
002EEE0C 2019-04-13 01:37:38 22.5 19 25.2
002EEE0C 2019-04-13 01:03:46 22.5 19 24.8
002EEE0C 2019-04-13 00:29:52 22.5 19 24.8
002EEE0C 2019-04-12 23:55:59 22.6 19 24.9
002EEE0C 2019-04-12 23:22:06 22.7 19 25
002EEE0C 2019-04-12 22:48:14 22.7 19 25.1
002EEE0C 2019-04-12 22:14:20 22.7 19 25.2
002EEE0C 2019-04-12 21:40:28 22.8 19 25.3
002EEE0C 2019-04-12 21:06:36 22.9 20 25.4
002EEE0C 2019-04-12 20:32:43 22.9 19 25.6
002EEE0C 2019-04-12 19:58:48 22.8 19 25.5
002EEE0C 2019-04-12 19:24:56 22.9 19 25.7
002EEE0C 2019-04-12 18:51:04 22.9 19 25.6
002EEE0C 2019-04-12 18:17:11 22.9 18 25.8
002EEE0C 2019-04-12 17:43:17 23.1 18 26
002EEE0C 2019-04-12 17:09:23 23.1 18 26.1
002EEE0C 2019-04-12 16:35:28 23.1 19 26.3
002EEE0C 2019-04-12 16:01:34 23.1 19 26.8
002EEE0C 2019-04-12 15:27:39 23.1 19 27.4
002EEE0C 2019-04-12 14:53:45 22.9 20 27.8
002EEE0C 2019-04-12 14:19:52 22.7 20 26.7
002EEE0C 2019-04-12 13:45:58 22.2 21 23.1
002EEE0C 2019-04-12 13:12:04 21.4 24 15.3